contact:dominique.lefevre@mio.osupytheas.fr, maurice.libes@osupytheas.fr, didier.mallarino@osupytheas.fr
Project:EMSO http://www.emso-fr.org/EMSO-France
Depth: 2436.0 m
Title:EMSO Ligure Ouest : Data MII capteur MICROCAT
DateTime_Computer,Latitude,Longitude,Temperature,Conductivity,Pressure,DateTime_Instrument
DateTime_Computer,Latitude,Longitude,degC,S m-1,dbar,DateTime_Instrument
2020-08-25T00:02:55Z,42.805,6.029,13.2976,4.59997,2470.156,2020-8-25T02:03:45Z
2020-08-25T00:05:58Z,42.805,6.029,13.2981,4.59988,2470.194,2020-8-25T02:06:48Z
2020-08-25T00:09:02Z,42.805,6.029,13.2972,4.59985,2470.133,2020-8-25T02:09:52Z
2020-08-25T00:12:05Z,42.805,6.029,13.2978,4.59986,2470.171,2020-8-25T02:12:55Z
2020-08-25T00:15:08Z,42.805,6.029,13.2977,4.59988,2470.156,2020-8-25T02:15:58Z
2020-08-25T00:18:12Z,42.805,6.029,13.2976,4.59988,2470.156,2020-8-25T02:19:02Z
2020-08-25T00:21:15Z,42.805,6.029,13.2976,4.59986,2470.156,2020-8-25T02:22:05Z
2020-08-25T00:24:18Z,42.805,6.029,13.2974,4.59991,2470.133,2020-8-25T02:25:08Z
2020-08-25T00:27:21Z,42.805,6.029,13.2977,4.59996,2470.133,2020-8-25T02:28:11Z
2020-08-25T00:30:25Z,42.805,6.029,13.2976,4.59991,2470.147,2020-8-25T02:31:14Z
2020-08-25T00:33:28Z,42.805,6.029,13.2977,4.59991,2470.11,2020-8-25T02:34:18Z
2020-08-25T00:36:31Z,42.805,6.029,13.2975,4.59991,2470.171,2020-8-25T02:37:21Z
2020-08-25T00:39:34Z,42.805,6.029,13.2993,4.59990,2470.147,2020-8-25T02:40:24Z
2020-08-25T00:42:38Z,42.805,6.029,13.3003,4.59988,2470.147,2020-8-25T02:43:28Z
2020-08-25T00:45:41Z,42.805,6.029,13.2975,4.59992,2470.1,2020-8-25T02:46:31Z
2020-08-25T00:48:44Z,42.805,6.029,13.2984,4.59988,2470.147,2020-8-25T02:49:34Z
2020-08-25T00:51:47Z,42.805,6.029,13.2999,4.59999,2470.133,2020-8-25T02:52:37Z
2020-08-25T00:54:51Z,42.805,6.029,13.3006,4.59998,2470.147,2020-8-25T02:55:40Z
2020-08-25T00:57:54Z,42.805,6.029,13.3025,4.60021,2470.119,2020-8-25T02:58:44Z
2020-08-25T01:00:57Z,42.805,6.029,13.3007,4.60009,2470.147,2020-8-25T03:01:47Z
2020-08-25T01:04:00Z,42.805,6.029,13.3002,4.60019,2470.11,2020-8-25T03:04:50Z
2020-08-25T01:07:03Z,42.805,6.029,13.3018,4.60029,2470.156,2020-8-25T03:07:53Z
2020-08-25T01:10:07Z,42.805,6.029,13.3012,4.59999,2470.147,2020-8-25T03:10:57Z
2020-08-25T01:13:10Z,42.805,6.029,13.3011,4.60051,2470.147,2020-8-25T03:14:00Z
2020-08-25T01:16:13Z,42.805,6.029,13.3005,4.60046,2470.133,2020-8-25T03:17:03Z
2020-08-25T01:19:17Z,42.805,6.029,13.3015,4.60057,2470.11,2020-8-25T03:20:07Z
2020-08-25T01:22:20Z,42.805,6.029,13.2996,4.60050,2470.133,2020-8-25T03:23:10Z
2020-08-25T01:25:24Z,42.805,6.029,13.3005,4.60062,2470.1,2020-8-25T03:26:14Z
2020-08-25T01:28:27Z,42.805,6.029,13.3017,4.60066,2470.147,2020-8-25T03:29:17Z
2020-08-25T01:31:30Z,42.805,6.029,13.3004,4.60062,2470.133,2020-8-25T03:32:20Z
2020-08-25T01:34:33Z,42.805,6.029,13.2999,4.60069,2470.11,2020-8-25T03:35:23Z
2020-08-25T01:37:37Z,42.805,6.029,13.2993,4.60061,2470.11,2020-8-25T03:38:26Z
2020-08-25T01:40:40Z,42.805,6.029,13.2998,4.60073,2470.11,2020-8-25T03:41:30Z
2020-08-25T01:43:43Z,42.805,6.029,13.2998,4.60066,2470.147,2020-8-25T03:44:33Z
2020-08-25T01:46:46Z,42.805,6.029,13.3045,4.60049,2470.11,2020-8-25T03:47:36Z
2020-08-25T01:49:50Z,42.805,6.029,13.3019,4.60050,2470.11,2020-8-25T03:50:40Z
2020-08-25T01:52:53Z,42.805,6.029,13.3012,4.60029,2470.124,2020-8-25T03:53:43Z
2020-08-25T01:55:56Z,42.805,6.029,13.3005,4.60087,2470.124,2020-8-25T03:56:46Z
2020-08-25T01:58:59Z,42.805,6.029,13.3001,4.60085,2470.1,2020-8-25T03:59:49Z
2020-08-25T02:02:03Z,42.805,6.029,13.3006,4.60067,2470.124,2020-8-25T04:02:53Z
2020-08-25T02:05:06Z,42.805,6.029,13.3007,4.60079,2470.133,2020-8-25T04:05:56Z
2020-08-25T02:08:09Z,42.805,6.029,13.3007,4.60042,2470.124,2020-8-25T04:08:59Z
2020-08-25T02:11:13Z,42.805,6.029,13.3029,4.60072,2470.133,2020-8-25T04:12:03Z
2020-08-25T02:14:16Z,42.805,6.029,13.2993,4.60097,2470.1,2020-8-25T04:15:06Z
2020-08-25T02:17:19Z,42.805,6.029,13.3006,4.60090,2470.133,2020-8-25T04:18:09Z
2020-08-25T02:20:22Z,42.805,6.029,13.3000,4.60057,2470.087,2020-8-25T04:21:12Z
2020-08-25T02:23:26Z,42.805,6.029,13.2996,4.60103,2470.11,2020-8-25T04:24:16Z
2020-08-25T02:26:29Z,42.805,6.029,13.3005,4.60091,2470.077,2020-8-25T04:27:19Z
2020-08-25T02:29:32Z,42.805,6.029,13.3000,4.60079,2470.124,2020-8-25T04:30:22Z
2020-08-25T02:32:36Z,42.805,6.029,13.3000,4.60062,2470.124,2020-8-25T04:33:26Z
2020-08-25T02:35:39Z,42.805,6.029,13.2994,4.60065,2470.11,2020-8-25T04:36:29Z
2020-08-25T02:38:42Z,42.805,6.029,13.2990,4.60054,2470.077,2020-8-25T04:39:32Z
2020-08-25T02:41:45Z,42.805,6.029,13.2997,4.60042,2470.11,2020-8-25T04:42:35Z
2020-08-25T02:44:49Z,42.805,6.029,13.3014,4.60074,2470.087,2020-8-25T04:45:38Z
2020-08-25T02:47:52Z,42.805,6.029,13.3003,4.60064,2470.124,2020-8-25T04:48:42Z
2020-08-25T02:50:55Z,42.805,6.029,13.3015,4.60092,2470.124,2020-8-25T04:51:45Z
2020-08-25T02:53:58Z,42.805,6.029,13.3013,4.60063,2470.063,2020-8-25T04:54:48Z
2020-08-25T02:57:02Z,42.805,6.029,13.3003,4.60073,2470.063,2020-8-25T04:57:52Z
2020-08-25T03:00:05Z,42.805,6.029,13.2998,4.60093,2470.1,2020-8-25T05:00:55Z
2020-08-25T03:03:08Z,42.805,6.029,13.2995,4.60099,2470.063,2020-8-25T05:03:58Z
2020-08-25T03:06:11Z,42.805,6.029,13.3002,4.60038,2470.087,2020-8-25T05:07:01Z
2020-08-25T03:09:15Z,42.805,6.029,13.2995,4.60041,2470.063,2020-8-25T05:10:05Z
2020-08-25T03:12:18Z,42.805,6.029,13.3006,4.60091,2470.087,2020-8-25T05:13:08Z
2020-08-25T03:15:21Z,42.805,6.029,13.3009,4.60045,2470.04,2020-8-25T05:16:11Z
2020-08-25T03:18:25Z,42.805,6.029,13.2990,4.60087,2470.077,2020-8-25T05:19:15Z
2020-08-25T03:21:28Z,42.805,6.029,13.2997,4.60055,2470.077,2020-8-25T05:22:18Z
2020-08-25T03:24:31Z,42.805,6.029,13.2994,4.60094,2470.063,2020-8-25T05:25:21Z
2020-08-25T03:27:34Z,42.805,6.029,13.3002,4.60081,2470.04,2020-8-25T05:28:24Z
2020-08-25T03:30:38Z,42.805,6.029,13.3012,4.60092,2470.053,2020-8-25T05:31:28Z
2020-08-25T03:33:41Z,42.805,6.029,13.3009,4.60056,2470.124,2020-8-25T05:34:31Z
2020-08-25T03:36:44Z,42.805,6.029,13.3012,4.60026,2470.053,2020-8-25T05:37:34Z
2020-08-25T03:39:47Z,42.805,6.029,13.2997,4.60039,2470.1,2020-8-25T05:40:37Z
2020-08-25T03:42:51Z,42.805,6.029,13.3002,4.60047,2470.03,2020-8-25T05:43:41Z
2020-08-25T03:45:54Z,42.805,6.029,13.3004,4.60067,2470.077,2020-8-25T05:46:44Z
2020-08-25T03:48:58Z,42.805,6.029,13.2997,4.60055,2470.077,2020-8-25T05:49:48Z
2020-08-25T03:52:01Z,42.805,6.029,13.3035,4.60041,2470.063,2020-8-25T05:52:51Z
2020-08-25T03:55:04Z,42.805,6.029,13.3013,4.60072,2470.077,2020-8-25T05:55:54Z
2020-08-25T03:58:08Z,42.805,6.029,13.2998,4.60053,2470.077,2020-8-25T05:58:58Z
2020-08-25T04:01:11Z,42.805,6.029,13.3004,4.60025,2470.063,2020-8-25T06:02:01Z
2020-08-25T04:04:14Z,42.805,6.029,13.3002,4.60072,2470.077,2020-8-25T06:05:04Z
2020-08-25T04:07:17Z,42.805,6.029,13.2999,4.60051,2470.077,2020-8-25T06:08:07Z
2020-08-25T04:10:21Z,42.805,6.029,13.3001,4.60051,2470.017,2020-8-25T06:11:11Z
2020-08-25T04:13:24Z,42.805,6.029,13.2998,4.60086,2470.053,2020-8-25T06:14:14Z
2020-08-25T04:16:27Z,42.805,6.029,13.3012,4.60095,2470.063,2020-8-25T06:17:17Z
2020-08-25T04:19:30Z,42.805,6.029,13.2999,4.60064,2470.053,2020-8-25T06:20:20Z
2020-08-25T04:22:33Z,42.805,6.029,13.2993,4.60029,2470.063,2020-8-25T06:23:23Z
2020-08-25T04:25:37Z,42.805,6.029,13.2997,4.60046,2470.063,2020-8-25T06:26:27Z
2020-08-25T04:28:40Z,42.805,6.029,13.3005,4.60052,2470.017,2020-8-25T06:29:30Z
2020-08-25T04:31:43Z,42.805,6.029,13.2997,4.60060,2470.053,2020-8-25T06:32:33Z
2020-08-25T04:34:47Z,42.805,6.029,13.2997,4.60048,2470.077,2020-8-25T06:35:37Z
2020-08-25T04:37:50Z,42.805,6.029,13.3025,4.60057,2470.03,2020-8-25T06:38:40Z
2020-08-25T04:40:53Z,42.805,6.029,13.3011,4.60037,2470.04,2020-8-25T06:41:43Z
2020-08-25T04:43:56Z,42.805,6.029,13.2996,4.60050,2470.017,2020-8-25T06:44:46Z
2020-08-25T04:46:59Z,42.805,6.029,13.2997,4.60060,2470.03,2020-8-25T06:47:49Z
2020-08-25T04:50:03Z,42.805,6.029,13.2999,4.60059,2470.04,2020-8-25T06:50:53Z
2020-08-25T04:53:06Z,42.805,6.029,13.3001,4.60040,2470.04,2020-8-25T06:53:56Z
2020-08-25T04:56:10Z,42.805,6.029,13.3009,4.60059,2470.04,2020-8-25T06:57:00Z
2020-08-25T04:59:13Z,42.805,6.029,13.3001,4.60102,2470.017,2020-8-25T07:00:03Z
2020-08-25T05:02:16Z,42.805,6.029,13.3007,4.60054,2470.017,2020-8-25T07:03:06Z
2020-08-25T05:05:19Z,42.805,6.029,13.3005,4.60054,2469.993,2020-8-25T07:06:09Z
2020-08-25T05:08:22Z,42.805,6.029,13.3016,4.60029,2470.007,2020-8-25T07:09:12Z
2020-08-25T05:11:26Z,42.805,6.029,13.3013,4.60036,2470.017,2020-8-25T07:12:16Z
2020-08-25T05:14:29Z,42.805,6.029,13.3018,4.60039,2470.04,2020-8-25T07:15:19Z
2020-08-25T05:17:32Z,42.805,6.029,13.3021,4.60052,2470.017,2020-8-25T07:18:22Z
2020-08-25T05:20:36Z,42.805,6.029,13.3028,4.60046,2469.993,2020-8-25T07:21:26Z
2020-08-25T05:23:39Z,42.805,6.029,13.3028,4.60054,2470.03,2020-8-25T07:24:29Z
2020-08-25T05:26:42Z,42.805,6.029,13.3014,4.60075,2470.007,2020-8-25T07:27:32Z
2020-08-25T05:29:45Z,42.805,6.029,13.3029,4.60069,2470.017,2020-8-25T07:30:35Z
2020-08-25T05:32:49Z,42.805,6.029,13.3013,4.60074,2470.04,2020-8-25T07:33:39Z
2020-08-25T05:35:52Z,42.805,6.029,13.3025,4.60052,2470.017,2020-8-25T07:36:42Z
2020-08-25T05:38:55Z,42.805,6.029,13.3015,4.60034,2470.04,2020-8-25T07:39:45Z
2020-08-25T05:41:59Z,42.805,6.029,13.3011,4.60031,2470.03,2020-8-25T07:42:49Z
2020-08-25T05:45:02Z,42.805,6.029,13.3026,4.60055,2469.993,2020-8-25T07:45:52Z
2020-08-25T05:48:05Z,42.805,6.029,13.3024,4.60059,2469.97,2020-8-25T07:48:55Z
2020-08-25T05:51:09Z,42.805,6.029,13.3036,4.60019,2470.053,2020-8-25T07:51:59Z
2020-08-25T05:54:12Z,42.805,6.029,13.3022,4.60008,2470.007,2020-8-25T07:55:02Z
2020-08-25T05:57:15Z,42.805,6.029,13.3012,4.60044,2470.017,2020-8-25T07:58:05Z
2020-08-25T06:00:18Z,42.805,6.029,13.3014,4.60036,2469.993,2020-8-25T08:01:08Z
2020-08-25T06:03:22Z,42.805,6.029,13.3009,4.60093,2470.007,2020-8-25T08:04:12Z
2020-08-25T06:06:25Z,42.805,6.029,13.3016,4.60047,2470.03,2020-8-25T08:07:15Z
2020-08-25T06:09:28Z,42.805,6.029,13.3000,4.60057,2470.017,2020-8-25T08:10:18Z
2020-08-25T06:12:31Z,42.805,6.029,13.3014,4.60054,2469.993,2020-8-25T08:13:21Z
2020-08-25T06:15:35Z,42.805,6.029,13.2995,4.60055,2469.956,2020-8-25T08:16:25Z
2020-08-25T06:18:38Z,42.805,6.029,13.3006,4.60063,2469.993,2020-8-25T08:19:28Z
2020-08-25T06:21:41Z,42.805,6.029,13.3022,4.60057,2470.007,2020-8-25T08:22:31Z
2020-08-25T06:24:44Z,42.805,6.029,13.3004,4.60070,2470.017,2020-8-25T08:25:34Z
2020-08-25T06:27:48Z,42.805,6.029,13.3001,4.60081,2470.03,2020-8-25T08:28:38Z
2020-08-25T06:30:51Z,42.805,6.029,13.3004,4.60074,2469.993,2020-8-25T08:31:41Z
2020-08-25T06:33:54Z,42.805,6.029,13.3013,4.60079,2470.017,2020-8-25T08:34:44Z
2020-08-25T06:36:57Z,42.805,6.029,13.3001,4.60055,2470.03,2020-8-25T08:37:47Z
2020-08-25T06:40:01Z,42.805,6.029,13.3007,4.60046,2469.993,2020-8-25T08:40:51Z
2020-08-25T06:43:04Z,42.805,6.029,13.3024,4.60072,2469.97,2020-8-25T08:43:54Z
2020-08-25T06:46:07Z,42.805,6.029,13.3019,4.60044,2470.03,2020-8-25T08:46:57Z
2020-08-25T06:49:11Z,42.805,6.029,13.3005,4.60062,2470.007,2020-8-25T08:50:01Z
2020-08-25T06:52:14Z,42.805,6.029,13.3015,4.60058,2469.984,2020-8-25T08:53:04Z
2020-08-25T06:55:17Z,42.805,6.029,13.3000,4.60052,2470.03,2020-8-25T08:56:07Z
2020-08-25T06:58:21Z,42.805,6.029,13.3007,4.60054,2470.017,2020-8-25T08:59:11Z
2020-08-25T07:01:24Z,42.805,6.029,13.3013,4.60069,2469.993,2020-8-25T09:02:14Z
2020-08-25T07:04:27Z,42.805,6.029,13.3007,4.60093,2470.03,2020-8-25T09:05:17Z
2020-08-25T07:07:30Z,42.805,6.029,13.3004,4.60052,2470.007,2020-8-25T09:08:20Z
2020-08-25T07:10:34Z,42.805,6.029,13.3015,4.60054,2469.993,2020-8-25T09:11:24Z
2020-08-25T07:13:37Z,42.805,6.029,13.3001,4.60054,2469.97,2020-8-25T09:14:27Z
2020-08-25T07:16:40Z,42.805,6.029,13.3009,4.60038,2470.007,2020-8-25T09:17:30Z
2020-08-25T07:19:43Z,42.805,6.029,13.2999,4.60033,2470.04,2020-8-25T09:20:33Z
2020-08-25T07:22:47Z,42.805,6.029,13.3019,4.60049,2470.017,2020-8-25T09:23:37Z
2020-08-25T07:25:50Z,42.805,6.029,13.2994,4.60044,2470.053,2020-8-25T09:26:40Z
2020-08-25T07:28:53Z,42.805,6.029,13.3019,4.60056,2470.03,2020-8-25T09:29:43Z
2020-08-25T07:31:57Z,42.805,6.029,13.3000,4.60058,2470.03,2020-8-25T09:32:47Z
2020-08-25T07:35:00Z,42.805,6.029,13.3001,4.60077,2470.053,2020-8-25T09:35:50Z
2020-08-25T07:38:03Z,42.805,6.029,13.3009,4.60047,2470.007,2020-8-25T09:38:53Z
2020-08-25T07:41:06Z,42.805,6.029,13.3000,4.60078,2470.03,2020-8-25T09:41:56Z
2020-08-25T07:44:10Z,42.805,6.029,13.2997,4.60045,2470.017,2020-8-25T09:45:00Z
2020-08-25T07:47:13Z,42.805,6.029,13.3002,4.60069,2469.993,2020-8-25T09:48:03Z
2020-08-25T07:50:16Z,42.805,6.029,13.2998,4.60074,2470.04,2020-8-25T09:51:06Z
2020-08-25T07:53:20Z,42.805,6.029,13.2999,4.60097,2470.017,2020-8-25T09:54:10Z
2020-08-25T07:56:23Z,42.805,6.029,13.3007,4.60052,2470.017,2020-8-25T09:57:13Z
2020-08-25T07:59:26Z,42.805,6.029,13.2996,4.60051,2470.017,2020-8-25T10:00:16Z
2020-08-25T08:02:30Z,42.805,6.029,13.3000,4.60064,2470.04,2020-8-25T10:03:20Z
2020-08-25T08:05:33Z,42.805,6.029,13.3022,4.60072,2470.03,2020-8-25T10:06:23Z
2020-08-25T08:08:36Z,42.805,6.029,13.3009,4.60069,2470.053,2020-8-25T10:09:26Z
2020-08-25T08:11:39Z,42.805,6.029,13.3031,4.60065,2470.017,2020-8-25T10:12:29Z
2020-08-25T08:14:43Z,42.805,6.029,13.3019,4.60080,2469.993,2020-8-25T10:15:33Z
2020-08-25T08:17:46Z,42.805,6.029,13.3020,4.60081,2470.03,2020-8-25T10:18:36Z
2020-08-25T08:20:49Z,42.805,6.029,13.3000,4.60066,2470.03,2020-8-25T10:21:39Z
2020-08-25T08:23:53Z,42.805,6.029,13.3010,4.60044,2470.053,2020-8-25T10:24:43Z
2020-08-25T08:26:56Z,42.805,6.029,13.3000,4.60054,2470.053,2020-8-25T10:27:46Z
2020-08-25T08:29:59Z,42.805,6.029,13.3004,4.60027,2470.017,2020-8-25T10:30:49Z
2020-08-25T08:33:02Z,42.805,6.029,13.3001,4.60051,2470.03,2020-8-25T10:33:52Z
2020-08-25T08:36:06Z,42.805,6.029,13.2999,4.60086,2470.04,2020-8-25T10:36:56Z
2020-08-25T08:39:09Z,42.805,6.029,13.2997,4.60084,2470.063,2020-8-25T10:39:59Z
2020-08-25T08:42:12Z,42.805,6.029,13.2989,4.60073,2470.063,2020-8-25T10:43:02Z
2020-08-25T08:45:16Z,42.805,6.029,13.2991,4.60073,2470.077,2020-8-25T10:46:05Z
2020-08-25T08:48:19Z,42.805,6.029,13.3004,4.60076,2470.053,2020-8-25T10:49:09Z
2020-08-25T08:51:22Z,42.805,6.029,13.3019,4.60057,2470.063,2020-8-25T10:52:12Z
2020-08-25T08:54:25Z,42.805,6.029,13.3008,4.60057,2470.04,2020-8-25T10:55:15Z
2020-08-25T08:57:29Z,42.805,6.029,13.3006,4.60060,2470.077,2020-8-25T10:58:19Z
2020-08-25T09:00:32Z,42.805,6.029,13.2992,4.60046,2470.1,2020-8-25T11:01:22Z
2020-08-25T09:03:35Z,42.805,6.029,13.3005,4.60057,2470.087,2020-8-25T11:04:25Z
2020-08-25T09:06:39Z,42.805,6.029,13.2992,4.60070,2470.1,2020-8-25T11:07:29Z
2020-08-25T09:09:42Z,42.805,6.029,13.2999,4.60047,2470.077,2020-8-25T11:10:32Z
2020-08-25T09:12:45Z,42.805,6.029,13.3025,4.60037,2470.077,2020-8-25T11:13:35Z
2020-08-25T09:15:48Z,42.805,6.029,13.2987,4.60054,2470.11,2020-8-25T11:16:38Z
2020-08-25T09:18:52Z,42.805,6.029,13.2998,4.60061,2470.124,2020-8-25T11:19:42Z
2020-08-25T09:21:55Z,42.805,6.029,13.3002,4.60060,2470.063,2020-8-25T11:22:45Z
2020-08-25T09:24:58Z,42.805,6.029,13.3006,4.60055,2470.1,2020-8-25T11:25:48Z
2020-08-25T09:28:02Z,42.805,6.029,13.2986,4.60054,2470.087,2020-8-25T11:28:52Z
2020-08-25T09:31:05Z,42.805,6.029,13.3009,4.60046,2470.11,2020-8-25T11:31:55Z
2020-08-25T09:34:08Z,42.805,6.029,13.3005,4.60051,2470.087,2020-8-25T11:34:58Z
2020-08-25T09:37:11Z,42.805,6.029,13.3023,4.60053,2470.087,2020-8-25T11:38:01Z
2020-08-25T09:40:15Z,42.805,6.029,13.2986,4.60037,2470.124,2020-8-25T11:41:05Z
2020-08-25T09:43:18Z,42.805,6.029,13.2991,4.60058,2470.11,2020-8-25T11:44:08Z
2020-08-25T09:46:21Z,42.805,6.029,13.2996,4.60057,2470.133,2020-8-25T11:47:11Z
2020-08-25T09:49:24Z,42.805,6.029,13.3007,4.60027,2470.087,2020-8-25T11:50:14Z
2020-08-25T09:52:28Z,42.805,6.029,13.2995,4.60039,2470.087,2020-8-25T11:53:18Z
2020-08-25T09:55:31Z,42.805,6.029,13.3000,4.60036,2470.124,2020-8-25T11:56:21Z
2020-08-25T09:58:35Z,42.805,6.029,13.2998,4.60012,2470.11,2020-8-25T11:59:25Z
2020-08-25T10:01:38Z,42.805,6.029,13.3004,4.60064,2470.147,2020-8-25T12:02:28Z
2020-08-25T10:04:41Z,42.805,6.029,13.3006,4.60074,2470.133,2020-8-25T12:05:31Z
2020-08-25T10:07:44Z,42.805,6.029,13.2999,4.60055,2470.133,2020-8-25T12:08:34Z
2020-08-25T10:10:48Z,42.805,6.029,13.2994,4.60061,2470.133,2020-8-25T12:11:38Z
2020-08-25T10:13:51Z,42.805,6.029,13.3031,4.60048,2470.147,2020-8-25T12:14:41Z
2020-08-25T10:16:54Z,42.805,6.029,13.3011,4.60046,2470.11,2020-8-25T12:17:44Z
2020-08-25T10:19:58Z,42.805,6.029,13.3000,4.60043,2470.147,2020-8-25T12:20:48Z
2020-08-25T10:23:01Z,42.805,6.029,13.3022,4.60048,2470.11,2020-8-25T12:23:51Z
2020-08-25T10:26:04Z,42.805,6.029,13.3034,4.60061,2470.133,2020-8-25T12:26:54Z
2020-08-25T10:29:07Z,42.805,6.029,13.2989,4.60052,2470.133,2020-8-25T12:29:57Z
2020-08-25T10:32:11Z,42.805,6.029,13.2993,4.60057,2470.124,2020-8-25T12:33:01Z
2020-08-25T10:35:14Z,42.805,6.029,13.2996,4.60052,2470.119,2020-8-25T12:36:04Z
2020-08-25T10:38:17Z,42.805,6.029,13.2996,4.60051,2470.147,2020-8-25T12:39:07Z
2020-08-25T10:41:20Z,42.805,6.029,13.2991,4.60049,2470.156,2020-8-25T12:42:10Z
2020-08-25T10:44:24Z,42.805,6.029,13.2989,4.60029,2470.147,2020-8-25T12:45:14Z
2020-08-25T10:47:27Z,42.805,6.029,13.3011,4.60047,2470.147,2020-8-25T12:48:17Z
2020-08-25T10:50:30Z,42.805,6.029,13.3000,4.60039,2470.156,2020-8-25T12:51:20Z
2020-08-25T10:53:34Z,42.805,6.029,13.2999,4.60054,2470.171,2020-8-25T12:54:24Z
2020-08-25T10:56:37Z,42.805,6.029,13.2995,4.60054,2470.143,2020-8-25T12:57:27Z
2020-08-25T10:59:40Z,42.805,6.029,13.2998,4.60059,2470.133,2020-8-25T13:00:30Z
2020-08-25T11:02:44Z,42.805,6.029,13.3004,4.60050,2470.147,2020-8-25T13:03:34Z
2020-08-25T11:05:47Z,42.805,6.029,13.2998,4.60052,2470.11,2020-8-25T13:06:37Z
2020-08-25T11:08:50Z,42.805,6.029,13.3000,4.60060,2470.11,2020-8-25T13:09:40Z
2020-08-25T11:11:53Z,42.805,6.029,13.2989,4.60046,2470.156,2020-8-25T13:12:43Z
2020-08-25T11:14:57Z,42.805,6.029,13.2996,4.60050,2470.156,2020-8-25T13:15:47Z
2020-08-25T11:18:00Z,42.805,6.029,13.3005,4.60063,2470.156,2020-8-25T13:18:50Z
2020-08-25T11:21:03Z,42.805,6.029,13.2991,4.60026,2470.11,2020-8-25T13:21:53Z
2020-08-25T11:24:06Z,42.805,6.029,13.2989,4.60058,2470.156,2020-8-25T13:24:56Z
2020-08-25T11:27:10Z,42.805,6.029,13.3000,4.60041,2470.147,2020-8-25T13:28:00Z
2020-08-25T11:30:13Z,42.805,6.029,13.2997,4.60042,2470.133,2020-8-25T13:31:03Z
2020-08-25T11:33:16Z,42.805,6.029,13.3003,4.60038,2470.11,2020-8-25T13:34:06Z
2020-08-25T11:36:19Z,42.805,6.029,13.2994,4.60061,2470.133,2020-8-25T13:37:09Z
2020-08-25T11:39:23Z,42.805,6.029,13.2991,4.60031,2470.156,2020-8-25T13:40:13Z
2020-08-25T11:42:26Z,42.805,6.029,13.2988,4.60022,2470.18,2020-8-25T13:43:16Z
2020-08-25T11:45:29Z,42.805,6.029,13.2990,4.60019,2470.133,2020-8-25T13:46:19Z
2020-08-25T11:48:32Z,42.805,6.029,13.2990,4.60027,2470.156,2020-8-25T13:49:22Z
2020-08-25T11:51:36Z,42.805,6.029,13.3000,4.60026,2470.18,2020-8-25T13:52:26Z
2020-08-25T11:54:39Z,42.805,6.029,13.2991,4.60022,2470.156,2020-8-25T13:55:29Z
2020-08-25T11:57:43Z,42.805,6.029,13.2993,4.60027,2470.156,2020-8-25T13:58:33Z
2020-08-25T12:00:46Z,42.805,6.029,13.2990,4.60011,2470.147,2020-8-25T14:01:36Z
2020-08-25T12:03:49Z,42.805,6.029,13.2998,4.60019,2470.133,2020-8-25T14:04:39Z
2020-08-25T12:06:53Z,42.805,6.029,13.2994,4.60016,2470.156,2020-8-25T14:07:43Z
2020-08-25T12:09:56Z,42.805,6.029,13.3002,4.60032,2470.133,2020-8-25T14:10:46Z
2020-08-25T12:12:59Z,42.805,6.029,13.2991,4.60025,2470.171,2020-8-25T14:13:49Z
2020-08-25T12:16:02Z,42.805,6.029,13.2996,4.60026,2470.147,2020-8-25T14:16:52Z
2020-08-25T12:19:06Z,42.805,6.029,13.3000,4.60044,2470.156,2020-8-25T14:19:56Z
2020-08-25T12:22:09Z,42.805,6.029,13.3009,4.60029,2470.156,2020-8-25T14:22:59Z
2020-08-25T12:25:12Z,42.805,6.029,13.2993,4.60011,2470.171,2020-8-25T14:26:02Z
2020-08-25T12:28:15Z,42.805,6.029,13.2993,4.60014,2470.156,2020-8-25T14:29:05Z
2020-08-25T12:31:19Z,42.805,6.029,13.2987,4.60024,2470.171,2020-8-25T14:32:09Z
2020-08-25T12:34:22Z,42.805,6.029,13.3002,4.60035,2470.156,2020-8-25T14:35:12Z
2020-08-25T12:37:25Z,42.805,6.029,13.2992,4.60034,2470.124,2020-8-25T14:38:15Z
2020-08-25T12:40:28Z,42.805,6.029,13.3000,4.60037,2470.156,2020-8-25T14:41:18Z
2020-08-25T12:43:32Z,42.805,6.029,13.2993,4.60041,2470.18,2020-8-25T14:44:22Z
2020-08-25T12:46:35Z,42.805,6.029,13.2986,4.60019,2470.156,2020-8-25T14:47:25Z
2020-08-25T12:49:38Z,42.805,6.029,13.2990,4.60016,2470.133,2020-8-25T14:50:28Z
2020-08-25T12:52:41Z,42.805,6.029,13.2992,4.60021,2470.156,2020-8-25T14:53:31Z
2020-08-25T12:55:44Z,42.805,6.029,13.2993,4.60014,2470.147,2020-8-25T14:56:35Z
2020-08-25T12:58:48Z,42.805,6.029,13.2999,4.60056,2470.194,2020-8-25T14:59:38Z
2020-08-25T13:01:51Z,42.805,6.029,13.2995,4.60028,2470.171,2020-8-25T15:02:41Z
2020-08-25T13:04:54Z,42.805,6.029,13.2984,4.60019,2470.171,2020-8-25T15:05:44Z
2020-08-25T13:07:58Z,42.805,6.029,13.3003,4.60039,2470.18,2020-8-25T15:08:48Z
2020-08-25T13:11:01Z,42.805,6.029,13.2995,4.60019,2470.147,2020-8-25T15:11:51Z
2020-08-25T13:14:04Z,42.805,6.029,13.2990,4.60039,2470.156,2020-8-25T15:14:54Z
2020-08-25T13:17:07Z,42.805,6.029,13.2986,4.60025,2470.156,2020-8-25T15:17:57Z
2020-08-25T13:20:11Z,42.805,6.029,13.2998,4.60034,2470.133,2020-8-25T15:21:01Z
2020-08-25T13:23:14Z,42.805,6.029,13.2995,4.60010,2470.171,2020-8-25T15:24:04Z
2020-08-25T13:26:17Z,42.805,6.029,13.2989,4.60005,2470.18,2020-8-25T15:27:07Z
2020-08-25T13:29:21Z,42.805,6.029,13.2987,4.60010,2470.184,2020-8-25T15:30:11Z
2020-08-25T13:32:24Z,42.805,6.029,13.2990,4.60010,2470.147,2020-8-25T15:33:14Z
2020-08-25T13:35:27Z,42.805,6.029,13.2986,4.60017,2470.124,2020-8-25T15:36:17Z
2020-08-25T13:38:30Z,42.805,6.029,13.2993,4.60023,2470.18,2020-8-25T15:39:20Z
2020-08-25T13:41:34Z,42.805,6.029,13.3004,4.60025,2470.11,2020-8-25T15:42:24Z
2020-08-25T13:44:37Z,42.805,6.029,13.2989,4.60022,2470.156,2020-8-25T15:45:27Z
2020-08-25T13:47:40Z,42.805,6.029,13.2992,4.60024,2470.133,2020-8-25T15:48:30Z
2020-08-25T13:50:43Z,42.805,6.029,13.3000,4.60023,2470.171,2020-8-25T15:51:33Z
2020-08-25T13:53:46Z,42.805,6.029,13.2986,4.60014,2470.133,2020-8-25T15:54:36Z
2020-08-25T13:56:50Z,42.805,6.029,13.2983,4.60001,2470.194,2020-8-25T15:57:40Z
2020-08-25T13:59:53Z,42.805,6.029,13.2989,4.60025,2470.147,2020-8-25T16:00:43Z
2020-08-25T14:02:56Z,42.805,6.029,13.2996,4.60019,2470.1,2020-8-25T16:03:46Z
2020-08-25T14:05:59Z,42.805,6.029,13.2993,4.60042,2470.147,2020-8-25T16:06:49Z
2020-08-25T14:09:02Z,42.805,6.029,13.2991,4.60021,2470.133,2020-8-25T16:09:52Z
2020-08-25T14:12:06Z,42.805,6.029,13.3027,4.60039,2470.096,2020-8-25T16:12:56Z
2020-08-25T14:15:09Z,42.805,6.029,13.3031,4.60033,2470.11,2020-8-25T16:15:59Z
2020-08-25T14:18:12Z,42.805,6.029,13.2991,4.60026,2470.11,2020-8-25T16:19:02Z
2020-08-25T14:21:16Z,42.805,6.029,13.2996,4.60026,2470.087,2020-8-25T16:22:06Z
2020-08-25T14:24:19Z,42.805,6.029,13.3002,4.60005,2470.156,2020-8-25T16:25:09Z
2020-08-25T14:27:22Z,42.805,6.029,13.2989,4.59997,2470.133,2020-8-25T16:28:12Z
2020-08-25T14:30:25Z,42.805,6.029,13.2984,4.60005,2470.147,2020-8-25T16:31:15Z
2020-08-25T14:33:29Z,42.805,6.029,13.2986,4.60011,2470.124,2020-8-25T16:34:19Z
2020-08-25T14:36:32Z,42.805,6.029,13.2983,4.60011,2470.11,2020-8-25T16:37:22Z
2020-08-25T14:39:35Z,42.805,6.029,13.2988,4.60017,2470.147,2020-8-25T16:40:25Z
2020-08-25T14:42:38Z,42.805,6.029,13.2983,4.60010,2470.087,2020-8-25T16:43:28Z
2020-08-25T14:45:42Z,42.805,6.029,13.2984,4.60003,2470.171,2020-8-25T16:46:32Z
2020-08-25T14:48:45Z,42.805,6.029,13.2985,4.60013,2470.11,2020-8-25T16:49:35Z
2020-08-25T14:51:49Z,42.805,6.029,13.2991,4.60008,2470.11,2020-8-25T16:52:39Z
2020-08-25T14:54:52Z,42.805,6.029,13.2991,4.59998,2470.1,2020-8-25T16:55:42Z
2020-08-25T14:57:55Z,42.805,6.029,13.2985,4.60006,2470.171,2020-8-25T16:58:45Z
2020-08-25T15:00:58Z,42.805,6.029,13.2984,4.60001,2470.087,2020-8-25T17:01:48Z
2020-08-25T15:04:02Z,42.805,6.029,13.2990,4.60006,2470.147,2020-8-25T17:04:52Z
2020-08-25T15:07:05Z,42.805,6.029,13.2983,4.60012,2470.11,2020-8-25T17:07:55Z
2020-08-25T15:10:08Z,42.805,6.029,13.2989,4.60002,2470.087,2020-8-25T17:10:58Z
2020-08-25T15:13:11Z,42.805,6.029,13.2986,4.60009,2470.124,2020-8-25T17:14:01Z
2020-08-25T15:16:15Z,42.805,6.029,13.2991,4.60016,2470.087,2020-8-25T17:17:05Z